Regional Weather Roundup
Issued by NWS State College, PA

Home | Current Version | Previous Version | Graphics & Text | Print | Product List | Glossary Off
Versions: 1 2 3 4 5 6 7 8 9 10 11 12 13 14 15 16 17 18 19 20 21 22 23 24 25 26 27 28 29 30 31 32 33 34 35 36 37 38 39 40 41 42 43 44 45 46 47 48 49 50

000
ASUS41 KCTP 010803
RWRCTP

REGIONAL WEATHER ROUNDUP
NATIONAL WEATHER SERVICE STATE COLLEGE PA
300 AM EST SUN MAR 01 2015

Note: "fair" indicates few or no clouds below 12,000 feet with no
significant weather and/or obstructions to visibility.

* = STATION THAT DOES NOT REPORT PRECIPITATION /E.G. RAIN...SNOW...ETC/
    THUNDER OR FOG.

PAZ002>004-007>009-013>016-020>023-029>032-010900-
WESTERN PENNSYLVANIA

CITY           SKY/WX    TMP DP  RH WIND       PRES   REMARKS
ERIE           LGT SNOW  18  12  77 S7        30.50F WCI   9
MEADVILLE      SNOW      16  11  80 CALM      30.43F
FRANKLIN*      CLOUDY    16  10  79 E5        30.45F VSB 1   WCI   9
NEW CASTLE     LGT SNOW  17  15  92 CALM      30.48F FOG
BEAVER COUNTY  NOT AVBL
BUTLER*        CLOUDY    21   9  58 SE3       30.48S
PITTSBURGH INT LGT SNOW  22  10  60 SE5       30.47F
PITTSBURGH     LGT SNOW  23   6  48 CALM      30.46F
INDIANA*       CLOUDY    25  10  54 SE6       30.50F
LATROBE        CLOUDY    27  16  63 N3        30.48F
WASHINGTON CO* CLOUDY    21  14  73 CALM      30.49S
$$

PAZ004>006-010>012-017>019-024>028-033>037-041-042-045-046-049>053-010900-
CENTRAL PENNSYLVANIA

CITY           SKY/WX    TMP DP  RH WIND       PRES   REMARKS
BRADFORD       LGT SNOW  17   3  54 SE5       30.43F WCI  10
DUBOIS         LGT SNOW  17   8  67 SE7       30.45F WCI   8
CLEARFIELD     CLOUDY    16   0  49 NE3       30.51F
JOHNSTOWN      CLOUDY    20   6  55 S10       30.43F WCI   9
ALTOONA        FLURRIES  19   9  65 S7        30.53F WCI  10
STATE COLLEGE  CLOUDY    17   7  65 CALM      30.57S
WILLIAMSPORT   CLOUDY    12   2  64 CALM      30.63F
SELINSGROVE    CLOUDY    15   6  67 CALM      30.66S
FT INDIANTOWN  PTCLDY    12   3  66 CALM      30.67F
CAPITAL CITY   CLOUDY    18   8  65 CALM      30.68F
HARRISBURG     CLOUDY    18   9  68 E3        30.68F
YORK           CLOUDY    20   5  52 W3        30.67S
$$

PAZ038>040-043-044-047-048-054-055-060>062-067>071-010900-
EASTERN PENNSYLVANIA

CITY           SKY/WX    TMP DP  RH WIND       PRES   REMARKS
SCRANTON       MOCLDY    11  -2  56 E5        30.59F WCI   3
MOUNT POCONO   PTCLDY     7  -1  70 CALM      30.51F
ALLENTOWN      PTCLDY    12   2  64 CALM      30.67F
QUAKERTOWN*    MOSUNNY    7   0  72 CALM      30.67F
READING        CLOUDY    14   4  64 CALM      30.67F
LANCASTER      CLOUDY    15   9  76 S3        30.67F
COATESVILLE    PTSUNNY   21   9  58 CALM      30.65F
POTTSTOWN      MOCLDY    14   5  67 CALM      30.69F
BLUE BELL      PTCLDY    18  12  79 CALM      30.68F
DOYLESTOWN     PTCLDY    11   3  70 CALM      30.67F
WILLOW GROVE   NOT AVBL
NORTH PHILA    CLEAR     20   7  57 CALM      30.73F
PHILADELPHIA   CLOUDY    22   8  55 CALM      30.72F
$$



USA.gov is the U.S. government's official web portal to all federal, state and local government web resources and services.